Tracking 27420 objects as of 11-Jun-2023
HD Live streaming from Space Station
objects crossing your sky now

STARLINK-5915

Track STARLINK-5915 now!
10-day predictions
STARLINK-5915 is classified as:


NORAD ID: 55987
Int'l Code: 2023-042B
Perigee: 559.3 km
Apogee: 561.2 km
Inclination: 43.0 °
Period: 95.7 minutes
Semi major axis: 6931 km
RCS: Unknown
Launch date: March 24, 2022
Source: United States (US)
Launch site: AIR FORCE EASTERN TEST RANGE (AFETR)
Your satellite tracking list
Your tracking list is empty




NASA's NSSDC Master Catalog

Two Line Element Set (TLE):
1 55987U 23042B   23161.32695496  .00000569  00000-0  54539-4 0  9992
2 55987  43.0019 108.5233 0001371 266.1987  93.8699 15.04489674 11976
Source of the keplerian elements: AFSPC